QPF
0.00 0.01 0.00 0.00 0.00 0.00 0.01 0.01 0.01 0.00 0.01 0.01 0.01 0.01 0.02 0.01 0.01 0.02 0.03 0.02 0.02 0.01 0.02 0.02 0.01 0.01 0.01 0.02 0.02 0.02 0.02 0.02 0.02 0.02 0.03 0.03 0.03 0.03 0.03 0.03 0.03 0.03 0.06 0.08
0.00 0.00 0.00 0.00 0.00 0.00 0.00 0.01 0.01 0.01 0.01 0.02 0.02 0.01 0.01 0.01 0.03 0.04 0.03 0.02 0.01 0.01 0.02 0.01 0.01 0.01 0.01 0.02 0.02 0.02 0.02 0.02 0.03 0.03 0.02 0.03 0.03 0.02 0.02 0.02 0.02 0.03 0.04 0.05
0.01 0.00 0.00 0.00 0.00 0.00 0.00 0.00 0.00 0.01 0.01 0.01 0.01 0.01 0.01 0.01 0.02 0.02 0.02 0.01 0.00 0.01 0.01 0.01 0.00 0.00 0.01 0.02 0.03 0.02 0.02 0.02 0.03 0.03 0.03 0.02 0.03 0.02 0.02 0.01 0.01 0.02 0.03 0.03
0.01 0.00 0.00 0.00 0.00 0.00 0.00 0.00 0.00 0.00 0.01 0.01 0.01 0.01 0.01 0.01 0.01 0.01 0.01 0.01 0.00 0.00 0.01 0.00 0.01 0.00 0.00 0.01 0.02 0.03 0.03 0.03 0.03 0.04 0.04 0.03 0.02 0.02 0.02 0.01 0.01 0.01 0.02 0.02
0.01 0.00 0.00 0.00 0.00 0.00 0.01 0.00 0.00 0.01 0.01 0.01 0.00 0.01 0.01 0.01 0.01 0.01 0.01 0.00 0.00 0.00 0.00 0.00 0.01 0.01 0.00 0.01 0.02 0.02 0.03 0.03 0.03 0.02 0.02 0.03 0.02 0.01 0.01 0.01 0.01 0.02 0.02 0.01
0.01 0.00 0.00 0.00 0.00 0.00 0.00 0.00 0.00 0.01 0.01 0.01 0.00 0.00 0.00 0.00 0.01 0.01 0.01 0.00 0.00 0.00 0.00 0.00 0.00 0.00 0.00 0.01 0.01 0.02 0.02 0.03 0.03 0.03 0.02 0.02 0.02 0.02 0.01 0.01 0.01 0.01 0.02 0.01
0.01 0.00 0.00 0.00 0.01 0.01 0.01 0.01 0.02 0.02 0.02 0.01 0.00 0.00 0.00 0.00 0.00 0.00 0.00 0.00 0.00 0.00 0.00 0.00 0.00 0.00 0.00 0.01 0.01 0.01 0.02 0.02 0.02 0.03 0.02 0.02 0.02 0.02 0.01 0.01 0.01 0.01 0.01 0.01
0.01 0.00 0.00 0.00 0.01 0.01 0.01 0.02 0.02 0.02 0.02 0.01 0.00 0.00 0.00 0.00 0.00 0.00 0.00 0.00 0.00 0.00 0.00 0.00 0.00 0.00 0.00 0.00 0.01 0.01 0.01 0.01 0.02 0.02 0.03 0.04 0.04 0.03 0.02 0.02 0.02 0.02 0.01 0.01
0.01 0.01 0.00 0.00 0.01 0.01 0.02 0.02 0.02 0.02 0.02 0.01 0.01 0.00 0.00 0.00 0.00 0.00 0.00 0.00 0.00 0.00 0.00 0.00 0.00 0.00 0.01 0.01 0.01 0.01 0.00 0.00 0.01 0.01 0.02 0.04 0.06 0.06 0.05 0.04 0.03 0.02 0.02 0.02
0.01 0.01 0.01 0.00 0.01 0.02 0.01 0.02 0.02 0.04 0.03 0.01 0.01 0.00 0.00 0.00 0.00 0.00 0.00 0.00 0.00 0.00 0.00 0.00 0.00 0.00 0.01 0.01 0.01 0.01 0.00 0.00 0.01 0.01 0.02 0.03 0.05 0.05 0.05 0.05 0.05 0.04 0.03 0.03
0.01 0.02 0.01 0.01 0.01 0.03 0.02 0.02 0.02 0.03 0.03 0.03 0.02 0.01 0.00 0.00 0.00 0.00 0.00 0.00 0.00 0.00 0.00 0.00 0.00 0.00 0.00 0.01 0.01 0.01 0.01 0.01 0.02 0.02 0.03 0.03 0.04 0.04 0.04 0.04 0.04 0.04 0.05 0.05
0.01 0.02 0.01 0.01 0.00 0.00 0.02 0.02 0.02 0.03 0.02 0.02 0.02 0.02 0.00 0.00 0.00 0.00 0.00 0.00 0.00 0.00 0.00 0.00 0.00 0.00 0.00 0.00 0.01 0.02 0.02 0.02 0.01 0.01 0.02 0.02 0.02 0.02 0.02 0.03 0.03 0.03 0.03 0.04
0.01 0.02 0.02 0.02 0.01 0.01 0.02 0.02 0.02 0.03 0.03 0.02 0.02 0.02 0.01 0.00 0.00 0.00 0.00 0.00 0.01 0.01 0.00 0.00 0.00 0.00 0.00 0.00 0.01 0.01 0.01 0.01 0.01 0.01 0.00 0.01 0.01 0.01 0.01 0.02 0.02 0.03 0.03 0.03
0.02 0.02 0.02 0.02 0.01 0.01 0.01 0.01 0.01 0.02 0.03 0.02 0.02 0.01 0.01 0.00 0.00 0.00 0.00 0.00 0.01 0.01 0.01 0.01 0.00 0.00 0.00 0.00 0.00 0.00 0.00 0.00 0.00 0.00 0.00 0.00 0.00 0.01 0.01 0.01 0.02 0.02 0.03 0.03
0.02 0.01 0.00 0.00 0.00 0.00 0.00 0.00 0.00 0.01 0.01 0.02 0.01 0.01 0.01 0.01 0.00 0.00 0.00 0.00 0.01 0.01 0.01 0.01 0.01 0.01 0.00 0.00 0.00 0.00 0.00 0.00 0.00 0.00 0.00 0.00 0.00 0.00 0.00 0.01 0.01 0.02 0.02 0.02
0.03 0.02 0.01 0.00 0.00 0.00 0.01 0.00 0.00 0.00 0.01 0.01 0.01 0.02 0.01 0.01 0.01 0.00 0.00 0.00 0.01 0.01 0.02 0.02 0.01 0.01 0.01 0.00 0.00 0.00 0.00 0.00 0.00 0.00 0.00 0.00 0.00 0.00 0.00 0.01 0.01 0.01 0.02 0.02
0.02 0.02 0.02 0.01 0.00 0.01 0.01 0.01 0.01 0.01 0.01 0.01 0.02 0.01 0.01 0.01 0.01 0.01 0.00 0.00 0.00 0.01 0.02 0.03 0.02 0.02 0.01 0.00 0.00 0.00 0.00 0.00 0.00 0.00 0.00 0.00 0.00 0.01 0.01 0.01 0.01 0.01 0.01 0.02
0.02 0.02 0.03 0.02 0.01 0.02 0.01 0.01 0.01 0.01 0.01 0.01 0.01 0.02 0.02 0.01 0.01 0.01 0.01 0.01 0.01 0.01 0.02 0.03 0.04 0.02 0.01 0.00 0.00 0.00 0.00 0.00 0.00 0.00 0.00 0.01 0.01 0.01 0.01 0.01 0.01 0.01 0.02 0.02
0.01 0.03 0.04 0.02 0.02 0.01 0.01 0.00 0.01 0.01 0.01 0.01 0.01 0.01 0.02 0.02 0.02 0.02 0.02 0.01 0.01 0.01 0.02 0.03 0.04 0.03 0.01 0.00 0.00 0.00 0.00 0.00 0.00 0.00 0.00 0.01 0.01 0.01 0.01 0.01 0.01 0.01 0.02 0.02
0.02 0.03 0.04 0.03 0.02 0.01 0.01 0.00 0.01 0.01 0.01 0.01 0.01 0.01 0.02 0.02 0.02 0.02 0.01 0.01 0.00 0.01 0.02 0.03 0.04 0.02 0.01 0.00 0.00 0.00 0.00 0.00 0.00 0.00 0.00 0.00 0.01 0.01 0.01 0.01 0.01 0.01 0.02 0.02
0.02 0.04 0.03 0.02 0.02 0.01 0.00 0.00 0.00 0.01 0.01 0.01 0.01 0.01 0.02 0.01 0.01 0.01 0.00 0.00 0.00 0.00 0.02 0.03 0.04 0.03 0.02 0.01 0.00 0.00 0.00 0.00 0.00 0.00 0.00 0.01 0.01 0.01 0.01 0.01 0.01 0.02 0.02 0.02
0.00 0.01 0.01 0.01 0.02 0.01 0.00 0.00 0.00 0.01 0.00 0.00 0.00 0.00 0.01 0.01 0.00 0.00 0.00 0.00 0.00 0.00 0.01 0.03 0.03 0.03 0.02 0.01 0.01 0.01 0.00 0.00 0.00 0.01 0.01 0.01 0.01 0.01 0.01 0.01 0.01 0.01 0.02 0.02
0.00 0.00 0.00 0.00 0.00 0.00 0.00 0.00 0.00 0.00 0.00 0.00 0.00 0.00 0.00 0.00 0.00 0.00 0.00 0.00 0.00 0.00 0.01 0.02 0.03 0.03 0.03 0.02 0.01 0.01 0.01 0.01 0.01 0.01 0.01 0.01 0.01 0.02 0.01 0.01 0.01 0.01 0.01 0.01
0.00 0.00 0.00 0.00 0.00 0.00 0.00 0.00 0.00 0.00 0.00 0.00 0.00 0.00 0.00 0.00 0.00 0.00 0.00 0.00 0.00 0.00 0.01 0.02 0.03 0.03 0.03 0.02 0.02 0.01 0.01 0.01 0.01 0.01 0.01 0.01 0.02 0.02 0.02 0.01 0.01 0.01 0.01 0.01
0.00 0.00 0.00 0.00 0.00 0.00 0.00 0.00 0.00 0.00 0.00 0.00 0.00 0.00 0.00 0.00 0.00 0.00 0.00 0.00 0.00 0.00 0.00 0.01 0.02 0.02 0.02 0.02 0.02 0.02 0.02 0.01 0.01 0.01 0.01 0.02 0.02 0.02 0.02 0.01 0.01 0.01 0.01 0.01
0.00 0.00 0.00 0.00 0.00 0.00 0.00 0.00 0.00 0.00 0.00 0.00 0.00 0.00 0.00 0.00 0.00 0.00 0.00 0.00 0.00 0.01 0.01 0.01 0.02 0.02 0.02 0.02 0.02 0.02 0.02 0.02 0.02 0.01 0.02 0.02 0.02 0.02 0.02 0.01 0.01 0.01 0.01 0.01
MSLP
1013.39 1013.16 1012.84 1012.46 1012.10 1011.81 1011.62 1011.55 1011.58 1011.65 1011.70 1011.67 1011.53 1011.26 1010.86 1010.38 1009.87 1009.41 1009.05 1008.82 1008.75 1008.82 1009.02 1009.31 1009.65 1010.03 1010.43 1010.83 1011.26 1011.72 1012.21 1012.72 1013.26 1013.80 1014.30 1014.76 1015.16 1015.48 1015.74 1015.95 1016.13 1016.32 1016.52 1016.75
1013.23 1012.93 1012.55 1012.15 1011.80 1011.55 1011.42 1011.43 1011.52 1011.64 1011.71 1011.68 1011.50 1011.16 1010.70 1010.14 1009.57 1009.05 1008.65 1008.39 1008.29 1008.34 1008.50 1008.74 1009.02 1009.32 1009.65 1010.00 1010.40 1010.87 1011.40 1012.00 1012.65 1013.30 1013.93 1014.49 1014.96 1015.32 1015.58 1015.76 1015.89 1016.01 1016.14 1016.31
1013.05 1012.68 1012.26 1011.87 1011.55 1011.36 1011.31 1011.40 1011.55 1011.70 1011.78 1011.71 1011.47 1011.05 1010.50 1009.86 1009.23 1008.67 1008.24 1007.97 1007.87 1007.91 1008.05 1008.25 1008.47 1008.71 1008.96 1009.26 1009.61 1010.07 1010.62 1011.28 1012.00 1012.75 1013.47 1014.12 1014.64 1015.03 1015.29 1015.45 1015.54 1015.61 1015.68 1015.80
1012.85 1012.44 1012.02 1011.65 1011.40 1011.29 1011.34 1011.49 1011.70 1011.86 1011.91 1011.77 1011.44 1010.92 1010.25 1009.52 1008.82 1008.23 1007.79 1007.53 1007.45 1007.51 1007.66 1007.85 1008.04 1008.23 1008.43 1008.66 1008.97 1009.38 1009.92 1010.59 1011.34 1012.13 1012.90 1013.58 1014.14 1014.55 1014.81 1014.96 1015.03 1015.07 1015.12 1015.22
1012.64 1012.22 1011.83 1011.52 1011.36 1011.36 1011.49 1011.71 1011.94 1012.09 1012.08 1011.84 1011.39 1010.74 1009.95 1009.12 1008.35 1007.72 1007.29 1007.07 1007.03 1007.14 1007.33 1007.55 1007.75 1007.92 1008.08 1008.26 1008.51 1008.86 1009.36 1009.98 1010.70 1011.47 1012.22 1012.90 1013.45 1013.86 1014.11 1014.26 1014.33 1014.39 1014.46 1014.57
1012.39 1012.00 1011.67 1011.46 1011.40 1011.50 1011.72 1012.00 1012.23 1012.33 1012.23 1011.88 1011.28 1010.48 1009.57 1008.64 1007.82 1007.17 1006.75 1006.57 1006.61 1006.80 1007.06 1007.34 1007.58 1007.77 1007.92 1008.07 1008.26 1008.55 1008.96 1009.49 1010.12 1010.81 1011.49 1012.10 1012.61 1012.98 1013.23 1013.38 1013.48 1013.58 1013.71 1013.89
1012.08 1011.75 1011.52 1011.42 1011.47 1011.67 1011.96 1012.26 1012.48 1012.52 1012.31 1011.83 1011.09 1010.16 1009.12 1008.12 1007.24 1006.59 1006.21 1006.10 1006.22 1006.50 1006.87 1007.24 1007.55 1007.78 1007.94 1008.07 1008.22 1008.43 1008.73 1009.15 1009.65 1010.20 1010.75 1011.25 1011.67 1011.99 1012.21 1012.38 1012.52 1012.69 1012.90 1013.19
1011.72 1011.47 1011.33 1011.34 1011.51 1011.79 1012.12 1012.43 1012.61 1012.57 1012.26 1011.65 1010.80 1009.76 1008.65 1007.59 1006.70 1006.07 1005.74 1005.70 1005.91 1006.30 1006.76 1007.23 1007.62 1007.91 1008.11 1008.24 1008.35 1008.48 1008.68 1008.95 1009.30 1009.68 1010.08 1010.44 1010.74 1010.98 1011.16 1011.33 1011.52 1011.76 1012.08 1012.48
1011.31 1011.14 1011.11 1011.22 1011.46 1011.79 1012.15 1012.44 1012.56 1012.44 1012.04 1011.36 1010.42 1009.33 1008.19 1007.13 1006.27 1005.68 1005.41 1005.44 1005.74 1006.20 1006.76 1007.30 1007.77 1008.12 1008.36 1008.49 1008.58 1008.65 1008.74 1008.88 1009.07 1009.29 1009.51 1009.71 1009.89 1010.03 1010.17 1010.33 1010.55 1010.86 1011.27 1011.78
1010.90 1010.81 1010.85 1011.03 1011.32 1011.67 1012.02 1012.26 1012.32 1012.14 1011.68 1010.94 1009.99 1008.91 1007.80 1006.80 1006.00 1005.48 1005.28 1005.38 1005.73 1006.26 1006.86 1007.45 1007.96 1008.35 1008.61 1008.76 1008.83 1008.85 1008.87 1008.90 1008.95 1009.01 1009.08 1009.13 1009.18 1009.23 1009.32 1009.45 1009.69 1010.04 1010.52 1011.12
1010.54 1010.51 1010.60 1010.80 1011.10 1011.43 1011.72 1011.90 1011.90 1011.67 1011.18 1010.45 1009.54 1008.53 1007.52 1006.63 1005.94 1005.52 1005.39 1005.54 1005.91 1006.44 1007.04 1007.63 1008.14 1008.53 1008.80 1008.96 1009.01 1009.01 1008.98 1008.94 1008.89 1008.84 1008.78 1008.72 1008.67 1008.64 1008.66 1008.77 1009.00 1009.37 1009.89 1010.54
1010.27 1010.26 1010.37 1010.56 1010.82 1011.09 1011.30 1011.40 1011.33 1011.06 1010.57 1009.89 1009.08 1008.20 1007.35 1006.61 1006.06 1005.75 1005.68 1005.86 1006.22 1006.71 1007.26 1007.79 1008.25 1008.62 1008.87 1009.02 1009.08 1009.07 1009.02 1008.94 1008.84 1008.73 1008.60 1008.47 1008.35 1008.26 1008.24 1008.32 1008.53 1008.89 1009.40 1010.06
1010.09 1010.08 1010.16 1010.32 1010.50 1010.67 1010.78 1010.78 1010.64 1010.34 1009.88 1009.28 1008.60 1007.89 1007.22 1006.67 1006.27 1006.08 1006.08 1006.26 1006.58 1007.00 1007.45 1007.89 1008.27 1008.58 1008.79 1008.93 1008.99 1009.00 1008.96 1008.89 1008.79 1008.67 1008.52 1008.36 1008.21 1008.10 1008.05 1008.11 1008.30 1008.63 1009.12 1009.74
1009.96 1009.93 1009.97 1010.04 1010.12 1010.17 1010.16 1010.06 1009.85 1009.52 1009.09 1008.59 1008.05 1007.53 1007.06 1006.70 1006.47 1006.38 1006.44 1006.62 1006.89 1007.22 1007.56 1007.89 1008.18 1008.41 1008.59 1008.72 1008.79 1008.83 1008.83 1008.80 1008.74 1008.64 1008.52 1008.38 1008.24 1008.14 1008.09 1008.15 1008.32 1008.62 1009.06 1009.62
1009.83 1009.76 1009.72 1009.70 1009.66 1009.58 1009.44 1009.23 1008.94 1008.58 1008.19 1007.78 1007.38 1007.04 1006.76 1006.59 1006.51 1006.54 1006.65 1006.84 1007.06 1007.31 1007.56 1007.79 1008.00 1008.17 1008.32 1008.44 1008.54 1008.62 1008.68 1008.70 1008.70 1008.66 1008.59 1008.50 1008.41 1008.35 1008.33 1008.40 1008.57 1008.84 1009.23 1009.72
1009.61 1009.48 1009.36 1009.23 1009.07 1008.86 1008.59 1008.26 1007.90 1007.52 1007.15 1006.82 1006.55 1006.36 1006.26 1006.25 1006.32 1006.45 1006.63 1006.84 1007.05 1007.26 1007.45 1007.62 1007.78 1007.93 1008.07 1008.21 1008.34 1008.47 1008.58 1008.67 1008.73 1008.76 1008.75 1008.73 1008.70 1008.69 1008.73 1008.83 1009.01 1009.27 1009.62 1010.03
1009.24 1009.03 1008.83 1008.59 1008.31 1007.97 1007.59 1007.17 1006.74 1006.33 1005.99 1005.72 1005.55 1005.49 1005.53 1005.67 1005.87 1006.11 1006.36 1006.62 1006.86 1007.07 1007.26 1007.43 1007.60 1007.76 1007.93 1008.11 1008.29 1008.47 1008.63 1008.76 1008.87 1008.95 1009.00 1009.04 1009.07 1009.13 1009.22 1009.37 1009.57 1009.83 1010.15 1010.50
1008.68 1008.40 1008.10 1007.76 1007.37 1006.93 1006.45 1005.96 1005.48 1005.06 1004.73 1004.52 1004.43 1004.47 1004.63 1004.89 1005.20 1005.55 1005.90 1006.23 1006.54 1006.82 1007.07 1007.31 1007.53 1007.76 1008.00 1008.23 1008.46 1008.68 1008.87 1009.03 1009.16 1009.25 1009.33 1009.40 1009.48 1009.59 1009.74 1009.93 1010.17 1010.44 1010.73 1011.03
1007.98 1007.61 1007.21 1006.78 1006.31 1005.79 1005.24 1004.70 1004.20 1003.78 1003.48 1003.32 1003.30 1003.43 1003.68 1004.04 1004.45 1004.90 1005.36 1005.80 1006.21 1006.60 1006.96 1007.31 1007.64 1007.97 1008.29 1008.59 1008.87 1009.11 1009.31 1009.46 1009.57 1009.65 1009.71 1009.78 1009.88 1010.01 1010.20 1010.43 1010.70 1010.99 1011.28 1011.54
1007.20 1006.73 1006.25 1005.73 1005.19 1004.62 1004.04 1003.49 1003.00 1002.61 1002.36 1002.25 1002.30 1002.50 1002.84 1003.27 1003.78 1004.33 1004.88 1005.44 1005.98 1006.50 1007.00 1007.48 1007.95 1008.39 1008.80 1009.17 1009.48 1009.73 1009.90 1010.01 1010.06 1010.09 1010.10 1010.14 1010.21 1010.35 1010.55 1010.81 1011.10 1011.40 1011.68 1011.92
1006.44 1005.87 1005.30 1004.71 1004.12 1003.53 1002.96 1002.43 1001.99 1001.67 1001.48 1001.45 1001.57 1001.85 1002.25 1002.76 1003.34 1003.97 1004.62 1005.28 1005.93 1006.58 1007.22 1007.84 1008.43 1008.98 1009.47 1009.88 1010.21 1010.44 1010.56 1010.60 1010.57 1010.51 1010.45 1010.42 1010.45 1010.57 1010.76 1011.01 1011.31 1011.61 1011.89 1012.10
1005.78 1005.11 1004.46 1003.82 1003.20 1002.62 1002.08 1001.62 1001.27 1001.04 1000.95 1001.01 1001.22 1001.57 1002.04 1002.60 1003.24 1003.93 1004.65 1005.39 1006.14 1006.88 1007.63 1008.35 1009.03 1009.65 1010.20 1010.63 1010.95 1011.14 1011.20 1011.16 1011.04 1010.88 1010.72 1010.62 1010.59 1010.65 1010.81 1011.05 1011.33 1011.63 1011.89 1012.08
1005.26 1004.50 1003.78 1003.10 1002.49 1001.94 1001.48 1001.12 1000.88 1000.77 1000.81 1000.98 1001.29 1001.72 1002.25 1002.86 1003.53 1004.25 1005.00 1005.78 1006.58 1007.38 1008.17 1008.95 1009.67 1010.33 1010.88 1011.32 1011.60 1011.74 1011.73 1011.60 1011.39 1011.15 1010.91 1010.73 1010.63 1010.64 1010.76 1010.96 1011.22 1011.48 1011.72 1011.89
1004.87 1004.04 1003.27 1002.58 1001.99 1001.51 1001.14 1000.91 1000.82 1000.86 1001.03 1001.33 1001.75 1002.25 1002.84 1003.48 1004.17 1004.90 1005.65 1006.42 1007.21 1008.01 1008.80 1009.57 1010.29 1010.93 1011.45 1011.85 1012.09 1012.17 1012.10 1011.91 1011.63 1011.32 1011.02 1010.78 1010.63 1010.58 1010.65 1010.81 1011.03 1011.25 1011.46 1011.59
1004.55 1003.67 1002.88 1002.21 1001.67 1001.28 1001.04 1000.95 1001.02 1001.22 1001.55 1001.98 1002.50 1003.08 1003.72 1004.39 1005.08 1005.78 1006.49 1007.22 1007.96 1008.70 1009.44 1010.15 1010.81 1011.39 1011.86 1012.20 1012.38 1012.42 1012.30 1012.07 1011.76 1011.42 1011.09 1010.82 1010.63 1010.55 1010.57 1010.68 1010.84 1011.02 1011.18 1011.28
1004.20 1003.31 1002.54 1001.92 1001.47 1001.19 1001.09 1001.16 1001.39 1001.75 1002.22 1002.78 1003.41 1004.07 1004.74 1005.42 1006.10 1006.76 1007.42 1008.08 1008.73 1009.38 1010.02 1010.63 1011.20 1011.69 1012.08 1012.36 1012.50 1012.50 1012.37 1012.13 1011.83 1011.49 1011.17 1010.90 1010.70 1010.60 1010.58 1010.64 1010.75 1010.87 1010.97 1011.02
Thickness
5586 5578 5574 5579 5583 5586 5586 5584 5583 5588 5592 5588 5587 5591 5596 5599 5599 5599 5599 5600 5601 5602 5603 5604 5604 5605 5605 5606 5608 5610 5611 5613 5615 5615 5617 5618 5617 5617 5617 5617 5617 5617 5616 5616
5574 5568 5574 5578 5578 5577 5575 5572 5574 5580 5584 5581 5580 5584 5593 5595 5595 5596 5595 5595 5595 5594 5595 5596 5596 5596 5596 5596 5597 5600 5602 5604 5605 5606 5608 5609 5609 5609 5609 5608 5608 5608 5607 5606
5563 5565 5570 5569 5566 5565 5564 5561 5562 5564 5569 5572 5569 5573 5586 5592 5592 5592 5592 5592 5590 5589 5587 5587 5587 5587 5586 5587 5588 5592 5593 5595 5596 5597 5598 5599 5599 5599 5599 5598 5598 5598 5598 5597
5555 5559 5560 5557 5553 5553 5551 5555 5555 5554 5549 5551 5561 5551 5579 5587 5586 5587 5585 5584 5583 5583 5582 5580 5579 5578 5577 5577 5579 5582 5583 5585 5586 5587 5588 5589 5589 5588 5589 5590 5589 5589 5589 5589
5545 5549 5548 5545 5544 5544 5542 5548 5546 5544 5541 5540 5550 5544 5563 5579 5576 5578 5578 5578 5577 5576 5575 5574 5572 5570 5569 5569 5570 5572 5573 5575 5577 5578 5579 5579 5579 5579 5579 5580 5580 5580 5580 5580
5537 5541 5539 5538 5540 5539 5538 5537 5537 5536 5530 5523 5545 5541 5553 5567 5571 5571 5570 5570 5569 5568 5567 5565 5563 5561 5560 5560 5560 5561 5563 5564 5566 5567 5569 5569 5569 5569 5569 5569 5569 5570 5570 5570
5530 5532 5532 5531 5529 5529 5527 5518 5514 5515 5514 5522 5547 5542 5548 5560 5564 5563 5561 5560 5560 5558 5556 5554 5552 5551 5551 5551 5551 5552 5553 5554 5555 5557 5558 5559 5559 5559 5559 5559 5559 5559 5559 5559
5517 5517 5522 5521 5518 5514 5516 5515 5506 5506 5514 5524 5532 5531 5540 5551 5552 5553 5552 5550 5548 5546 5545 5543 5542 5541 5541 5542 5542 5542 5543 5543 5545 5546 5547 5548 5549 5549 5549 5549 5549 5549 5550 5550
5508 5508 5514 5513 5513 5510 5509 5507 5511 5504 5507 5506 5520 5531 5532 5539 5538 5539 5537 5535 5533 5533 5533 5532 5531 5531 5531 5531 5532 5533 5533 5534 5535 5536 5537 5537 5538 5538 5538 5538 5539 5539 5539 5540
5498 5493 5503 5504 5503 5501 5501 5501 5495 5493 5494 5500 5517 5523 5518 5519 5522 5523 5520 5518 5519 5520 5521 5521 5521 5520 5521 5522 5522 5523 5523 5524 5525 5526 5527 5527 5527 5528 5528 5528 5528 5528 5529 5528
5491 5483 5489 5491 5488 5492 5491 5489 5488 5487 5489 5491 5497 5508 5516 5514 5512 5509 5508 5507 5507 5507 5508 5509 5509 5510 5511 5511 5512 5512 5513 5514 5515 5516 5516 5516 5517 5517 5517 5518 5518 5518 5518 5517
5483 5477 5477 5483 5485 5485 5483 5483 5480 5475 5477 5482 5483 5493 5509 5506 5505 5502 5499 5498 5498 5498 5498 5498 5498 5499 5500 5500 5501 5502 5503 5503 5505 5506 5506 5506 5507 5507 5506 5506 5507 5507 5507 5507
5472 5466 5466 5472 5472 5471 5470 5472 5471 5467 5466 5469 5473 5486 5497 5495 5494 5493 5491 5489 5488 5488 5488 5487 5487 5488 5488 5489 5490 5492 5493 5493 5494 5496 5496 5496 5496 5496 5495 5495 5495 5496 5496 5496
5469 5455 5458 5467 5470 5463 5461 5462 5462 5458 5454 5463 5472 5481 5486 5485 5483 5482 5481 5479 5478 5478 5477 5476 5475 5476 5477 5478 5479 5481 5482 5482 5483 5484 5485 5485 5485 5485 5485 5484 5484 5484 5485 5485
5458 5449 5453 5456 5461 5460 5457 5457 5456 5451 5454 5455 5469 5472 5477 5476 5474 5473 5472 5470 5469 5468 5467 5465 5464 5464 5465 5466 5467 5469 5470 5471 5472 5472 5473 5473 5474 5475 5474 5473 5473 5473 5473 5473
5448 5442 5443 5446 5455 5454 5453 5454 5453 5450 5451 5453 5457 5461 5470 5468 5467 5464 5462 5461 5460 5459 5457 5456 5456 5455 5455 5454 5455 5456 5457 5458 5459 5460 5462 5462 5463 5463 5463 5462 5462 5461 5461 5461
5438 5433 5435 5443 5448 5448 5445 5455 5450 5449 5450 5449 5449 5458 5460 5459 5457 5454 5454 5452 5451 5450 5448 5447 5446 5445 5444 5443 5443 5444 5445 5446 5447 5448 5450 5451 5451 5451 5451 5451 5450 5450 5449 5449
5432 5429 5427 5432 5435 5432 5459 5460 5458 5451 5449 5448 5448 5450 5451 5450 5449 5448 5447 5444 5442 5441 5439 5438 5436 5435 5434 5433 5433 5433 5435 5435 5436 5436 5438 5439 5439 5439 5439 5439 5439 5438 5438 5438
5430 5425 5425 5425 5427 5442 5457 5453 5448 5442 5444 5447 5443 5443 5443 5443 5441 5441 5442 5438 5434 5432 5430 5428 5427 5425 5425 5424 5423 5424 5424 5425 5425 5425 5426 5427 5427 5428 5428 5428 5428 5428 5427 5428
5421 5418 5416 5420 5421 5432 5454 5448 5446 5439 5434 5444 5440 5436 5435 5432 5427 5432 5432 5429 5426 5424 5422 5420 5418 5416 5415 5415 5415 5414 5414 5414 5414 5415 5415 5416 5416 5417 5418 5418 5418 5418 5417 5418
5409 5409 5409 5413 5416 5432 5444 5440 5438 5427 5434 5438 5436 5432 5428 5423 5422 5424 5423 5420 5418 5415 5414 5412 5409 5407 5407 5406 5405 5404 5404 5404 5404 5404 5404 5405 5406 5407 5407 5408 5408 5408 5407 5408
5412 5409 5408 5410 5412 5427 5436 5429 5427 5429 5432 5432 5429 5426 5423 5420 5418 5416 5414 5411 5409 5407 5405 5403 5400 5399 5398 5397 5396 5395 5394 5395 5394 5394 5395 5396 5397 5397 5398 5398 5398 5398 5398 5397
5421 5422 5421 5421 5429 5438 5432 5430 5429 5427 5424 5423 5420 5418 5415 5411 5408 5407 5405 5403 5401 5399 5397 5394 5391 5390 5390 5389 5388 5386 5386 5385 5385 5385 5386 5387 5388 5388 5389 5388 5388 5387 5388 5388
5424 5423 5420 5420 5429 5432 5429 5428 5425 5421 5417 5415 5412 5409 5406 5402 5400 5398 5396 5394 5392 5390 5388 5385 5383 5382 5381 5381 5381 5380 5379 5378 5376 5376 5377 5378 5379 5380 5380 5380 5379 5379 5378 5378
5423 5414 5411 5413 5422 5423 5424 5422 5420 5415 5411 5408 5405 5402 5399 5395 5393 5390 5388 5386 5384 5382 5379 5376 5375 5374 5374 5374 5373 5373 5372 5370 5369 5369 5370 5371 5372 5372 5372 5371 5371 5370 5371 5371
5418 5412 5409 5417 5421 5416 5418 5417 5414 5408 5404 5401 5397 5394 5391 5388 5385 5383 5381 5379 5376 5374 5371 5369 5368 5368 5367 5367 5367 5367 5366 5364 5363 5363 5364 5364 5364 5364 5364 5363 5362 5363 5363 5364